This is the latest recevied weather packets stored in our database for station/object KD4MBW. If no packets are shown the sender has not sent any weather packets the latest 10 day(s).
| Time | Temp. | Humidity | Pressure | Rain* | Wind** | Luminosity | Snow |
|---|---|---|---|---|---|---|---|
| 1787694128 | 31.67° C | 74% | 1014.4 hPa | 0 mm | - | 373 W/m² | - |
| 1787693823 | 31.67° C | 74% | 1014.2 hPa | 0 mm | - | 405 W/m² | - |
| 1787693519 | 31.67° C | 73% | 1014.4 hPa | 0 mm | - | 414 W/m² | - |
| 1787693215 | 31.67° C | 73% | 1014.7 hPa | 0 mm | - | 425 W/m² | - |
| 1787692911 | 31.67° C | 73% | 1014.8 hPa | 0 mm | - | 446 W/m² | - |
| 1787692606 | 31.67° C | 72% | 1014.7 hPa | 0 mm | - | 446 W/m² | - |
| 1787692300 | 31.67° C | 71% | 1014.8 hPa | 0 mm | - | 456 W/m² | - |
| 1787691995 | 31.67° C | 72% | 1014.8 hPa | 0 mm | - | 452 W/m² | - |
| 1787691694 | 31.67° C | 71% | 1014.2 hPa | 0 mm | - | 460 W/m² | - |
| 1787691392 | 31.67° C | 73% | 1014.4 hPa | 0 mm | - | 473 W/m² | - |
| 1787691086 | 31.67° C | 73% | 1014.3 hPa | 0 mm | - | 477 W/m² | - |
| 1787690782 | 31.67° C | 73% | 1014.5 hPa | 0 mm | - | 489 W/m² | - |
| 1787690482 | 31.67° C | 73% | 1014.7 hPa | 0 mm | - | 499 W/m² | - |
| 1787690178 | 31.67° C | 72% | 1014.7 hPa | 0 mm | - | 503 W/m² | - |
| 1787689875 | 32.22° C | 72% | 1014.6 hPa | 0 mm | - | 521 W/m² | - |
| 1787689569 | 31.67° C | 73% | 1014.7 hPa | 0 mm | - | 533 W/m² | - |
| 1787689264 | 31.67° C | 73% | 1014.8 hPa | 0 mm | - | 545 W/m² | - |
| 1787688960 | 31.67° C | 72% | 1015 hPa | 0 mm | - | 557 W/m² | - |
| 1787688656 | 31.67° C | 72% | 1014.8 hPa | 0 mm | - | 576 W/m² | - |
| 1787688355 | 31.67° C | 72% | 1015.1 hPa | 0 mm | - | 584 W/m² | - |
| 1787688051 | 31.67° C | 72% | 1015 hPa | 0 mm | - | 597 W/m² | - |
| 1787687746 | 32.22° C | 72% | 1015.3 hPa | 0 mm | - | 609 W/m² | - |
| 1787687447 | 31.67° C | 72% | 1015.2 hPa | 0 mm | - | 619 W/m² | - |
| 1787687143 | 31.67° C | 73% | 1015.2 hPa | 0 mm | - | 629 W/m² | - |
| 1787686838 | 32.22° C | 72% | 1015.1 hPa | 0 mm | - | 639 W/m² | - |
* Rain latest hour (hover to see other rain measurements)
** Current wind speed in m/s (hover to see current wind gust speed)